This demonstration page uses our WeatherBlox Daily Observations layout. Learn more.

Left ArrowRight Arrow

40.92945, -100.16068

Hourly Observations for May 25, 2020

Temp ( °F °C ) Dew Point ( °F °C ) Humidity (%) Winds ( mph kmh ) Pressure ( in mb ) Visibility ( mi km ) Precip ( " mm )
12:15 am 00:15 Cloudy 58 14.7 56 13.4 92 92 NNE 17 28 29.85 1011 10 16.0934 0.01 0.254
12:35 am 00:35 Cloudy with Light Rain 58 14.5 55 12.7 89 89 NNE 16 26 29.86 1011 10 16.0934 0.01 0.254
12:55 am 00:55 Cloudy with Rain 57 14.1 55 12.6 91 91 NE 14 22 29.88 1012 10 16.0934 0.02 0.508
1:15 am 01:15 Cloudy with Heavy Rain 57 14 55 13 94 94 NNE 14 22 29.88 1012 3 4.82802 0.17 4.318
1:35 am 01:35 Cloudy with Rain 57 14 55 13 94 94 N 15 24 29.88 1012 4 6.43736 0.29 7.366
1:55 am 01:55 Cloudy with Rain 57 13.8 55 13 95 95 NNE 14 22 29.9 1012 5 8.0467 0.38 9.652
2:15 am 02:15 Cloudy with Heavy Rain 56 13.6 55 12.8 95 95 N 13 20 29.92 1013 4 6.43736 0.08 2.032
2:35 am 02:35 Cloudy with Rain 56 13.6 55 12.8 95 95 N 9 15 29.93 1013 7 11.26538 0.14 3.556
2:55 am 02:55 Cloudy with Rain 56 13.1 54 12.2 94 94 N 16 26 29.93 1014 7 11.26538 0.22 5.588
3:15 am 03:15 Cloudy with Rain 54 12.3 52 11.3 94 94 N 21 33 29.94 1014 5 8.0467 0.05 1.27
3:35 am 03:35 Cloudy with Rain 54 12 52 11 94 94 N 24 39 29.93 1014 5 8.0467 0.09 2.286
3:55 am 03:55 Cloudy with Rain 53 11.7 51 10.7 94 94 N 17 28 29.94 1014 5 8.0467 0.14 3.556
4:15 am 04:15 Cloudy with Rain 53 11.6 51 10.5 93 93 N 17 28 29.95 1014 7 11.26538 0.03 0.762
4:35 am 04:35 Cloudy with Rain 53 11.5 51 10.3 92 92 N 14 22 29.95 1014 10 16.0934 0.05 1.27
4:55 am 04:55 Cloudy with Rain 53 11.5 51 10.5 94 94 N 15 24 29.95 1014 10 16.0934 0.06 1.524
5:15 am 05:15 Cloudy with Light Rain 53 11.4 51 10.3 93 93 N 14 22 29.95 1014 10 16.0934 0.01 0.254
5:35 am 05:35 Cloudy with Rain 52 11.3 51 10.5 95 95 N 13 20 29.96 1015 10 16.0934 0.03 0.762
5:55 am 05:55 Cloudy with Rain 52 11.1 51 10.4 96 96 NNW 8 13 29.96 1015 7 11.26538 0.1 2.54
6:15 am 06:15 Cloudy with Rain 52 11 50 10.2 95 95 NNW 13 20 29.96 1015 7 11.26538 0.05 1.27
6:35 am 06:35 Cloudy with Rain 52 11 50 10.2 95 95 N 15 24 29.96 1015 10 16.0934 0.1 2.54
6:55 am 06:55 Cloudy with Rain 51 10.7 50 10 95 95 N 20 31 29.96 1015 5 8.0467 0.14 3.556
7:15 am 07:15 Cloudy with Rain 51 10.7 50 10 95 95 N 16 26 29.96 1015 7 11.26538 0.02 0.508
7:35 am 07:35 Cloudy with Rain 51 10.7 50 9.9 95 95 N 16 26 29.96 1015 7 11.26538 0.04 1.016
7:55 am 07:55 Cloudy with Light Rain 51 10.7 50 9.9 95 95 NNW 17 28 29.96 1015 7 11.26538 0.06 1.524
8:15 am 08:15 Cloudy with Light Rain 51 10.8 50 9.8 94 94 NNW 20 31 29.96 1015 10 16.0934 0.01 0.254
8:35 am 08:35 Cloudy 52 11 49 9.6 91 91 N 25 41 29.96 1015 10 16.0934 0.01 0.254
8:55 am 08:55 Cloudy 52 11 49 9.7 92 92 N 21 33 29.96 1015 10 16.0934 0.01 0.254
9:15 am 09:15 Cloudy 52 11.2 49 9.5 89 89 N 24 39 29.96 1015 10 16.0934 0 0
9:35 am 09:35 Cloudy 53 11.5 50 9.9 90 90 NNW 13 20 29.98 1015 10 16.0934 0 0
9:55 am 09:55 Cloudy 53 11.5 49 9.6 88 88 NNW 21 33 29.99 1015 10 16.0934 0 0
10:15 am 10:15 Cloudy 53 11.5 49 9.6 88 88 N 21 33 30 1016 10 16.0934 0 0
10:35 am 10:35 Cloudy 53 11.9 50 10 88 88 NNW 16 26 29.99 1016 10 16.0934 0 0
10:55 am 10:55 Cloudy 54 12.1 50 10.1 88 88 NNW 21 33 30 1016 10 16.0934 0 0
11:15 am 11:15 Cloudy 55 12.5 51 10.4 87 87 NNW 15 24 30 1016 10 16.0934 0 0
11:35 am 11:35 Cloudy 55 12.5 50 10.2 86 86 N 14 22 30.01 1016 10 16.0934 0 0
11:55 am 11:55 Cloudy 55 12.5 50 10.1 85 85 N 16 26 30.02 1017 10 16.0934 0 0
12:15 pm 12:15 Cloudy with Rain 53 11.7 51 10.5 92 92 NNW 17 28 30.03 1017 3 4.82802 0.01 0.254
12:35 pm 12:35 Cloudy with Rain 54 12.2 52 11.3 94 94 N 15 24 30.02 1017 4 6.43736 0.03 0.762
12:55 pm 12:55 Cloudy with Light Rain 54 12.1 52 11 93 93 N 15 24 30.02 1017 4 6.43736 0.05 1.27
1:15 pm 13:15 Cloudy 55 13 53 11.6 91 91 N 21 33 30 1016 7 11.26538 0.01 0.254
1:35 pm 13:35 Cloudy 55 13 52 11.3 90 90 N 15 24 30 1016 10 16.0934 0.01 0.254
1:55 pm 13:55 Cloudy 55 12.9 52 11.2 90 90 N 16 26 30 1016 10 16.0934 0.01 0.254
2:15 pm 14:15 Cloudy 55 13 51 10.6 85 85 N 14 22 30 1016 10 16.0934 0 0
2:35 pm 14:35 Cloudy 56 13.3 51 10.8 85 85 N 14 22 29.99 1016 10 16.0934 0 0
2:55 pm 14:55 Cloudy 57 13.8 51 10.6 81 81 N 17 28 29.99 1015 10 16.0934 0 0
3:15 pm 15:15 Cloudy 58 14.3 52 11.1 81 81 NNW 17 28 29.98 1015 10 16.0934 0 0
3:35 pm 15:35 Cloudy 59 15.1 53 11.6 80 80 NNW 16 26 29.95 1014 10 16.0934 0 0
3:55 pm 15:55 Cloudy 59 15 52 11.3 79 79 NNW 20 31 29.96 1014 10 16.0934 0 0
4:15 pm 16:15 Cloudy 58 14.7 52 10.9 78 78 NNW 18 30 29.96 1015 10 16.0934 0 0
4:35 pm 16:35 Cloudy 59 15 51 10.8 76 76 N 16 26 29.96 1014 10 16.0934 0 0
4:55 pm 16:55 Cloudy 61 15.9 53 11.4 75 75 N 15 24 29.94 1014 10 16.0934 0 0
5:15 pm 17:15 Cloudy 60 15.8 51 10.6 71 71 NNW 15 24 29.94 1014 10 16.0934 0 0
5:35 pm 17:35 Cloudy 61 16 52 11 72 72 N 15 24 29.94 1014 10 16.0934 0 0
5:55 pm 17:55 Cloudy 62 16.4 52 11.2 72 72 N 12 19 29.93 1014 10 16.0934 0 0
6:15 pm 18:15 Partly Cloudy 60 15.6 50 10.1 70 70 N 14 22 29.94 1014 10 16.0934 0 0
6:35 pm 18:35 Sunny 60 15.7 50 10.1 70 70 N 12 19 29.94 1014 10 16.0934 0 0
6:55 pm 18:55 Partly Cloudy 60 15.7 50 10 69 69 N 13 20 29.93 1014 10 16.0934 0 0
7:15 pm 19:15 Sunny 60 15.3 50 10.1 71 71 N 10 17 29.93 1014 10 16.0934 0 0
7:35 pm 19:35 Sunny 60 15.5 51 10.3 71 71 N 10 17 29.93 1014 10 16.0934 0 0
7:55 pm 19:55 Sunny 60 15.4 51 10.6 73 73 N 8 13 29.93 1014 10 16.0934 0 0
8:15 pm 20:15 Sunny 59 14.9 51 10.3 74 74 N 9 15 29.94 1014 10 16.0934 0 0
8:35 pm 20:35 Sunny 58 14.2 50 9.8 75 75 N 8 13 29.95 1014 10 16.0934 0 0
8:55 pm 20:55 Sunny 56 13.1 49 9.7 80 80 NNE 6 9 29.96 1015 10 16.0934 0 0
9:15 pm 21:15 Clear 54 12 50 9.8 87 87 NNE 5 7 29.97 1015 10 16.0934 0 0
9:35 pm 21:35 Clear 53 11.6 49 9.5 87 87 NNE 5 7 29.98 1015 10 16.0934 0 0
9:55 pm 21:55 Clear 53 11.5 49 9.7 89 89 N 3 6 29.98 1015 10 16.0934 0 0
10:15 pm 22:15 Clear 51 10.8 49 9.7 93 93 N 3 6 29.99 1016 10 16.0934 0 0
10:35 pm 22:35 Clear 50 10.2 49 9.3 94 94 N 5 7 30 1016 10 16.0934 0 0
10:55 pm 22:55 Clear 49 9.6 47 8.5 93 93 N 5 7 30.01 1016 10 16.0934 0 0
11:15 pm 23:15 Clear 48 8.8 47 8.1 95 95 N 3 6 30.03 1017 10 16.0934 0 0
11:35 pm 23:35 Clear 47 8.5 46 7.7 95 95 NNW 3 6 30.04 1017 10 16.0934 0 0
11:55 pm 23:55 Clear 46 7.9 45 7.2 95 95 NNW 5 7 30.04 1017 10 16.0934 0 0

Powered by AerisWeather